Starlink 31925

operational
NORAD ID: 59840 Int'l Des: 2024-097 Owner: SPXS Country: US Constellation: starlink
LEOCIRCULAR

关于 Starlink 31925

正在加载描述...

实时位置

正在加载3D地球...

即将过境

高度历史

Altitude vs Time

uPlot chart will show altitude changes over time

两行轨道根数

1 59840U 24097F 25305.66668981 .00172169 00000-0 36961-2 0 9996
2 59840 43.0019 273.7729 0013901 153.7518 41.4699 15.43247108 5896
Epoch: Nov 1, 2025 • Age: 16 hours

当前状态

高度 453.2 km
速度 7.64 km/s
星下点 -43.04°S, 25.29°E
发射日期 May 23, 2024
运行时间 1.4 years
类型 internet

技术详情

分类 Payload
质量 730.00 kg
干质量 700.00 kg
总质量 730.00 kg
长度 0.30 m
直径 4.10 m
跨度 29.00 m
形状 Box + pan
制造商 SPXS
平台类型 Starlink V2M
阶段状态 In Orbit
所有者/国家 SPXS/US

大型星座

Loading constellations...